Flag for Germany

Past Weather in Schwabach, Bavaria, Germany — Yesterday and Last 2 Weeks

Now
61 °F

Scattered clouds.


Feels Like: 61 °F
Forecast: 66 / 51 °F
Wind: 14 mph from Southwest

Location: Nuernberg
Current Time: Oct 1, 2020 at 3:46:59 pm
Latest Report: Oct 1, 2020 at 2:50 pm
Visibility: N/A
Pressure29.68 "Hg
Humidity: 72%
Dew Point: 52 °F
Location of SchwabachLocation

Past Weather in Schwabach — Graph

°F

Schwabach Temperature Yesterday

Maximum temperature yesterday: 61 °F (at 3:20 pm)
Minimum temperature yesterday: 46 °F (at 11:50 pm)
Average temperature yesterday: 54 °F

High & Low Weather Summary for the Past Weeks

 TemperatureHumidityPressure
High81 °F (Sep 16, 3:50 pm)100% (Sep 20, 6:20 am)30.30 "Hg (Sep 20, 6:20 am)
Low36 °F (Sep 28, 5:20 am)31% (Sep 18, 3:50 pm)29.45 "Hg (Sep 26, 3:20 pm)
Average56 °F76%29.90 "Hg
* Reported Sep 16 2:20 pm — Oct 1 2:20 pm, Schwabach. Weather by CustomWeather, © 2020

Note: Actual official high and low records may vary slightly from our data, if they occured in-between our weather recording intervals... More about our weather records

Schwabach Weather History for the Previous 24 Hours

Scroll right to see more
 ConditionsComfort  
Time TempWeatherWind HumidityBarometerVisibility
2:20 pm
Thu, Oct 1
64 °FScattered clouds.12 mph64%29.68 "HgN/A
1:50 pm64 °FScattered clouds.9 mph64%29.68 "HgN/A
1:20 pm63 °FPartly sunny.10 mph68%29.68 "HgN/A
12:50 pm63 °FScattered clouds.12 mph68%29.71 "HgN/A
12:20 pm63 °FSunny.9 mph68%29.71 "Hg10 mi
11:50 am61 °FPassing clouds.9 mph68%29.71 "HgN/A
11:20 am59 °FPassing clouds.9 mph72%29.71 "HgN/A
10:50 am57 °FPassing clouds.8 mph77%29.74 "HgN/A
10:20 am54 °FPassing clouds.5 mph88%29.74 "HgN/A
9:50 am50 °FPassing clouds.3 mph88%29.77 "HgN/A
9:20 am48 °FSunny.6 mph94%29.77 "Hg10 mi
8:50 am46 °FSleet. Light fog.5 mph93%29.77 "HgN/A
8:20 am43 °FLight fog.3 mph100%29.77 "Hg2 mi
7:50 am41 °FFog.3 mph93%29.77 "Hg1 mi
7:20 am41 °FQuite cool.3 mph100%29.80 "Hg3 mi
6:50 am41 °FLight fog.3 mph100%29.80 "Hg5 mi
6:20 am41 °FLight fog.6 mph100%29.80 "HgN/A
5:50 am43 °FLight fog.6 mph100%29.80 "Hg5 mi
5:20 am41 °FLight fog.5 mph100%29.83 "Hg2 mi
4:50 am43 °FLight fog.5 mph100%29.83 "Hg2 mi
4:20 am43 °FSleet. Overcast.2 mph100%29.83 "Hg1 mi
3:50 am43 °FLight fog.1 mph100%29.86 "HgN/A
3:20 am43 °FLight fog.2 mph100%29.86 "Hg6 mi
2:50 am45 °FLight fog.5 mph100%29.86 "Hg6 mi
2:20 am45 °FLight fog.5 mph100%29.89 "Hg5 mi
1:50 am45 °FLight fog.5 mph100%29.89 "Hg4 mi
1:20 am45 °FLight fog.2 mph100%29.89 "Hg4 mi
12:50 am46 °FLight fog.3 mph100%29.89 "Hg4 mi
12:20 am48 °FLight fog.5 mph94%29.92 "Hg4 mi
11:50 pm
Wed, Sep 30
46 °FLight fog.1 mph100%29.92 "Hg4 mi
11:20 pm48 °FLight fog.No wind100%29.92 "HgN/A
10:50 pm48 °FLight fog.2 mph100%29.92 "HgN/A
10:20 pm48 °FLight fog.2 mph100%29.95 "HgN/A
9:50 pm50 °FLight fog.2 mph94%29.95 "HgN/A
8:50 pm54 °FLight fog.3 mph88%29.95 "HgN/A
8:20 pm54 °FPassing clouds.3 mph88%29.95 "HgN/A
7:50 pm55 °FPassing clouds.1 mph88%29.95 "HgN/A
7:20 pm55 °FPassing clouds.2 mph94%29.95 "HgN/A
6:50 pm57 °FPartly sunny.3 mph82%29.95 "HgN/A
6:20 pm59 °FScattered clouds.2 mph77%29.95 "HgN/A
5:50 pm59 °FPartly sunny.3 mph82%29.95 "HgN/A
5:20 pm61 °FBroken clouds.2 mph72%29.98 "HgN/A
4:50 pm59 °FBroken clouds.3 mph77%29.98 "HgN/A
4:20 pm61 °FBroken clouds.2 mph72%29.98 "HgN/A
3:50 pm61 °FBroken clouds.1 mph72%29.98 "HgN/A
3:20 pm61 °FBroken clouds.1 mph72%30.01 "HgN/A
Weather by CustomWeather, © 2020

See weather overview